[[{"header":{"parameterUnit":"m.s-1","parameterCategory":1,"la1":30.2991,"la2":30.254,"lo1":-89.0895,"lo2":-89.0444,"dy":0.0017,"dx":0.0017,"nx":28,"ny":28,"refTime":"2023-08-25T03:00:00:Z","depth":0,"parameterNumber":2,"parameterNumberName":"U-component_of_WINDS"},"data":[0,0,0,0,0,0,0,0,0,0,0,0,0,0,0,0,0,0,0,0,0,0,0,0,0,0,0,0,0,0,0,0,0,0,0,0,0,0,0,0,0,0,0,0,0,0,0,0,0,0,0,0,0,0,0,0,0,0,-0.2547,-0.2547,0,-0.2552,-0.2552,-0.2552,-0.2518,-0.2517,-0.2516,-0.2515,-0.2523,-0.2524,-0.2525,0,0,0,0,0,0,0,0,0,0,0,0,0,-0.2512,-0.2513,-0.2547,-0.2547,-0.2547,-0.2552,-0.2552,-0.2552,-0.2518,-0.2517,-0.2516,-0.2514,-0.2522,-0.2524,-0.2525,0,0,0,0,0,0,0,0,0,0,0,0,0,-0.2523,-0.2513,-0.2547,-0.2531,-0.2529,-0.2552,-0.2552,-0.2552,-0.2518,-0.2517,-0.2515,-0.2514,-0.2522,-0.2523,-0.2525,-0.2564,0,0,-0.253,-0.2531,0,0,0,0,0,0,0,0,-0.2522,-0.2524,-0.2533,-0.2532,-0.253,-0.2533,-0.2542,-0.2556,-0.2519,-0.2523,-0.2515,-0.2513,-0.2527,-0.2528,-0.2533,-0.2565,-0.2565,-0.253,-0.2531,-0.2532,-0.2532,0,0,0,0,0,0,0,-0.2522,-0.2524,-0.2549,-0.2533,-0.2532,-0.2524,-0.2524,-0.2545,-0.2533,-0.2522,-0.252,-0.252,-0.2526,-0.2531,-0.2533,-0.2565,-0.253,-0.2532,-0.2533,-0.2533,-0.2632,-0.2633,0,0,0,0,0,0,-0.2523,-0.2524,-0.2549,-0.2549,-0.2523,-0.2526,-0.2526,-0.2533,-0.2533,-0.2531,-0.2522,-0.2519,-0.2529,-0.2531,-0.2533,-0.258,-0.2532,-0.2534,-0.2535,-0.263,-0.2632,-0.2634,0,0,0,0,0,0,-0.2522,-0.2525,-0.2549,-0.2536,-0.2538,-0.2528,-0.2537,-0.2534,-0.2539,-0.2532,-0.253,-0.2529,-0.2528,-0.253,-0.2557,-0.258,-0.2534,-0.2536,-0.2628,-0.2631,-0.2633,-0.2675,0,0,0,0,0,0,-0.2521,-0.2525,-0.2539,-0.2536,-0.2539,-0.2572,-0.2538,-0.2535,-0.2542,-0.2538,-0.2538,-0.2537,-0.2527,-0.2555,-0.2559,-0.2581,-0.2537,-0.2626,-0.2629,-0.2632,-0.2671,-0.2678,-0.2684,0,0,0,0,0,-0.252,-0.2551,-0.254,-0.2544,-0.2556,-0.2573,-0.2575,-0.2562,-0.2544,-0.2558,-0.2554,-0.2537,-0.2576,-0.2558,-0.2562,-0.2585,-0.2625,-0.2628,-0.2632,-0.2668,-0.2677,-0.2684,0,0,0,0,0,0,-0.2558,-0.255,-0.2538,-0.2569,-0.2572,-0.2568,-0.2586,-0.2571,-0.258,-0.2577,-0.2561,-0.2561,-0.2591,-0.259,-0.257,-0.2624,-0.2597,-0.2602,-0.2624,-0.2632,-0.2638,-0.2638,-0.2538,0,0,0,0,0,-0.257,-0.2584,-0.2576,-0.2604,-0.2606,-0.2596,-0.2603,-0.2593,-0.2595,-0.2597,-0.2595,-0.2599,-0.2612,-0.2622,-0.2634,-0.267,-0.2671,-0.2689,-0.2695,-0.2701,-0.2705,-0.2727,-0.2735,-0.2646,-0.2646,-0.2646,0,0,-0.2595,-0.2592,-0.2602,-0.2612,-0.2613,-0.2629,-0.2597,-0.2615,-0.2627,-0.26,-0.2625,-0.2624,-0.2628,-0.266,-0.2674,-0.2661,-0.273,-0.2705,-0.2709,-0.2711,-0.2731,-0.274,-0.2747,-0.2648,-0.2648,-0.2647,0,0,-0.2649,-0.2647,-0.2671,-0.2673,-0.2675,-0.2668,-0.2673,-0.2671,-0.2669,-0.2694,-0.2674,-0.2688,-0.2711,-0.2716,-0.2721,-0.2777,-0.2762,-0.2781,-0.2815,-0.2836,-0.2843,-0.285,-0.2871,-0.2879,-0.2785,-0.2785,-0.2785,0,-0.268,-0.2702,-0.2686,-0.2705,-0.2711,-0.2686,-0.2711,-0.2713,-0.2719,-0.2725,-0.2709,-0.2738,-0.2739,-0.2772,-0.2786,-0.279,-0.2798,-0.2781,-0.2843,-0.2849,-0.2855,-0.2876,-0.2884,-0.2788,-0.2787,-0.2787,-0.2787,0,-0.2741,-0.2757,-0.2776,-0.2782,-0.2789,-0.2812,-0.28,-0.281,-0.2799,-0.2794,-0.282,-0.282,-0.2832,-0.2839,-0.2828,-0.2872,-0.2864,-0.2846,-0.2819,-0.2866,-0.2886,-0.2893,-0.2791,-0.279,-0.279,-0.2789,0,0,-0.282,-0.2816,-0.2824,-0.2827,-0.2827,-0.284,-0.2861,-0.2872,-0.2882,-0.2887,-0.2906,-0.2926,-0.291,-0.2916,-0.2905,-0.2923,-0.297,-0.2904,-0.2903,-0.2918,-0.302,-0.3035,-0.3044,-0.2959,-0.2961,-0.2962,-0.302,0,-0.2874,-0.291,-0.2896,-0.2933,-0.2949,-0.2925,-0.2944,-0.2947,-0.2943,-0.2956,-0.2952,-0.2967,-0.2944,-0.2947,-0.2964,-0.2961,-0.2991,-0.2956,-0.2979,-0.298,-0.298,-0.3054,-0.3069,-0.3124,-0.3028,-0.3029,-0.303,0,-0.2942,-0.295,-0.2989,-0.2987,-0.2993,-0.301,-0.302,-0.3032,-0.3035,-0.3031,-0.3038,-0.3024,-0.3046,-0.3018,-0.305,-0.3027,-0.3035,-0.3035,-0.3037,-0.304,-0.3009,-0.3061,-0.3141,-0.3151,-0.3041,-0.304,-0.3039,0,-0.2999,-0.3018,-0.3044,-0.3047,-0.3045,-0.3058,-0.3059,-0.306,-0.3068,-0.3077,-0.3082,-0.3093,-0.31,-0.311,-0.31,-0.308,-0.3134,-0.3104,-0.3133,-0.3133,-0.3147,-0.3147,-0.3232,-0.3149,-0.3149,-0.3149,-0.3149,0,-0.3062,-0.3087,-0.307,-0.3086,-0.3114,-0.3098,-0.3126,-0.3124,-0.3126,-0.3142,-0.3122,-0.3139,-0.3123,-0.3139,-0.3131,-0.316,-0.3162,-0.3161,-0.3159,-0.3164,-0.3164,-0.3171,-0.3167,-0.3151,-0.315,-0.315,-0.315,0,-0.313,-0.3119,-0.3146,-0.3142,-0.3142,-0.3163,-0.316,-0.3176,-0.317,-0.3191,-0.3196,-0.3187,-0.3204,-0.3194,-0.3212,-0.3207,-0.3244,-0.3236,-0.3243,-0.3242,-0.3272,-0.327,-0.3366,-0.3378,-0.3285,-0.3286,-0.3287,0,-0.3172,-0.3191,-0.3189,-0.3198,-0.3199,-0.3214,-0.3222,-0.3207,-0.3216,-0.3222,-0.3237,-0.3252,-0.3264,-0.3292,-0.3288,-0.3302,-0.3295,-0.3328,-0.3297,-0.3302,-0.3298,-0.3298,-0.3301,-0.3335,-0.3336,-0.3337,-0.3337,0,-0.3248,-0.3242,-0.3254,-0.3264,-0.3273,-0.3281,-0.3287,-0.3296,-0.3281,-0.3292,-0.3309,-0.3318,-0.3335,-0.3351,-0.3363,-0.3364,-0.335,-0.3347,-0.3354,-0.3361,-0.3365,-0.3365,-0.3262,-0.3345,-0.3344,-0.3344,-0.3343,-0.3343,-0.3306,-0.3322,-0.3324,-0.3338,-0.334,-0.3346,-0.3361,-0.3357,-0.337,-0.3383,-0.3373,-0.3394,-0.3398,-0.3412,-0.3415,-0.3432,-0.3419,-0.3429,-0.3433,-0.3436,-0.3441,-0.336,-0.3434,-0.3433,-0.3433,-0.3433,-0.3433,0,-0.3383,-0.3383,-0.3396,-0.3404,-0.3416,-0.3398,-0.3404,-0.3415,-0.3433,-0.3437,-0.3449,-0.3469,-0.3484,-0.3481,-0.3496,-0.351,-0.3503,-0.3514,-0.3514,-0.3515,-0.3451,-0.3444,-0.3519,-0.3519,-0.3519,-0.3519,-0.3519,-0.3519,-0.3425,-0.3452,-0.3446,-0.3475,-0.3474,-0.3493,-0.3498,-0.3504,-0.3508,-0.3531,-0.3543,-0.354,-0.3542,-0.3557,-0.3571,-0.3569,-0.3577,-0.3591,-0.3587,-0.3528,-0.3519,-0.3511,-0.3505,-0.3592,-0.3592,-0.3651,-0.3651,-0.3652]},{"header":{"parameterUnit":"m.s-1","parameterCategory":1,"la1":30.2991,"la2":30.254,"lo1":-89.0895,"lo2":-89.0444,"dy":0.0017,"dx":0.0017,"nx":28,"ny":28,"refTime":"2023-08-25T03:00:00:Z","depth":0,"parameterNumber":3,"parameterNumberName":"V-component_of_WINDS"},"data":[0,0,0,0,0,0,0,0,0,0,0,0,0,0,0,0,0,0,0,0,0,0,0,0,0,0,0,0,0,0,0,0,0,0,0,0,0,0,0,0,0,0,0,0,0,0,0,0,0,0,0,0,0,0,0,0,0,0,-0.0374,-0.0374,0,-0.0345,-0.0344,-0.0344,-0.035,-0.0351,-0.0351,-0.0352,-0.0322,-0.0321,-0.032,0,0,0,0,0,0,0,0,0,0,0,0,0,-0.0436,-0.0435,-0.0374,-0.0374,-0.0373,-0.0345,-0.0344,-0.0344,-0.035,-0.0351,-0.0351,-0.0352,-0.0323,-0.0321,-0.032,0,0,0,0,0,0,0,0,0,0,0,0,0,-0.0408,-0.0435,-0.0374,-0.0373,-0.0373,-0.0345,-0.0344,-0.0344,-0.035,-0.0351,-0.0352,-0.0352,-0.0323,-0.0321,-0.0319,-0.0291,0,0,-0.0314,-0.0313,0,0,0,0,0,0,0,0,-0.041,-0.0406,-0.0374,-0.0373,-0.0373,-0.0352,-0.0355,-0.0326,-0.035,-0.0359,-0.0352,-0.0353,-0.0332,-0.0329,-0.0322,-0.029,-0.0289,-0.0313,-0.0312,-0.0311,-0.0311,0,0,0,0,0,0,0,-0.0412,-0.0407,-0.0362,-0.0373,-0.0372,-0.0374,-0.0371,-0.035,-0.0341,-0.0358,-0.0358,-0.0355,-0.0331,-0.0324,-0.0321,-0.0288,-0.0313,-0.0312,-0.031,-0.031,-0.0232,-0.0231,0,0,0,0,0,0,-0.0414,-0.0409,-0.0363,-0.0362,-0.0394,-0.0372,-0.0369,-0.0358,-0.0341,-0.0339,-0.0354,-0.0355,-0.0326,-0.0323,-0.032,-0.0286,-0.0311,-0.031,-0.0308,-0.0233,-0.0232,-0.0231,0,0,0,0,0,0,-0.0415,-0.041,-0.0365,-0.0385,-0.038,-0.037,-0.0358,-0.0357,-0.0349,-0.0338,-0.0337,-0.0348,-0.0327,-0.0323,-0.0298,-0.0285,-0.0309,-0.0307,-0.0234,-0.0233,-0.0232,-0.0218,0,0,0,0,0,0,-0.0417,-0.041,-0.0399,-0.0385,-0.0379,-0.0343,-0.0357,-0.0356,-0.0345,-0.0347,-0.0332,-0.033,-0.0327,-0.0301,-0.0297,-0.0283,-0.0305,-0.0235,-0.0234,-0.0232,-0.022,-0.0217,-0.0214,0,0,0,0,0,-0.0419,-0.0397,-0.0399,-0.0393,-0.0364,-0.0342,-0.0339,-0.0336,-0.0344,-0.0333,-0.0327,-0.0331,-0.0288,-0.0299,-0.0293,-0.0279,-0.0236,-0.0234,-0.0232,-0.0221,-0.0217,-0.0214,0,0,0,0,0,0,-0.041,-0.0395,-0.0397,-0.0369,-0.0357,-0.0343,-0.0329,-0.0332,-0.0317,-0.0319,-0.0316,-0.0313,-0.0288,-0.0281,-0.0294,-0.0251,-0.0263,-0.026,-0.0257,-0.0253,-0.025,-0.0252,-0.0304,0,0,0,0,0,-0.0404,-0.0387,-0.0375,-0.0352,-0.0346,-0.0338,-0.0329,-0.0328,-0.0315,-0.031,-0.0302,-0.0289,-0.0273,-0.0263,-0.0247,-0.0219,-0.0216,-0.0207,-0.0204,-0.0201,-0.0198,-0.0184,-0.0179,-0.0225,-0.0225,-0.0225,0,0,-0.0393,-0.0383,-0.0372,-0.0349,-0.034,-0.0323,-0.0334,-0.0315,-0.0303,-0.0307,-0.0284,-0.0277,-0.0264,-0.0237,-0.0225,-0.0231,-0.0185,-0.0199,-0.0197,-0.0195,-0.0181,-0.0177,-0.0173,-0.0223,-0.0223,-0.0224,0,0,-0.0363,-0.0354,-0.0333,-0.0324,-0.0309,-0.0305,-0.03,-0.0286,-0.0282,-0.0258,-0.0262,-0.0247,-0.0219,-0.0209,-0.0201,-0.0168,-0.0171,-0.0163,-0.0148,-0.0133,-0.013,-0.0126,-0.0115,-0.0111,-0.0161,-0.0161,-0.0161,0,-0.0351,-0.0325,-0.0322,-0.0303,-0.0293,-0.0297,-0.0277,-0.0267,-0.0249,-0.0242,-0.0249,-0.0214,-0.0205,-0.0177,-0.0169,-0.0162,-0.0156,-0.0165,-0.013,-0.0127,-0.0124,-0.0113,-0.0109,-0.016,-0.016,-0.016,-0.016,0,-0.031,-0.0292,-0.0278,-0.026,-0.0248,-0.0229,-0.0223,-0.0212,-0.0212,-0.0207,-0.0184,-0.0173,-0.0156,-0.0149,-0.0149,-0.0121,-0.0125,-0.0131,-0.0143,-0.0119,-0.0109,-0.0104,-0.0158,-0.0159,-0.0159,-0.0159,0,0,-0.0273,-0.0255,-0.0249,-0.0241,-0.0226,-0.0212,-0.0193,-0.0176,-0.0167,-0.0154,-0.0138,-0.0115,-0.012,-0.0111,-0.0109,-0.0097,-0.0072,-0.0104,-0.0104,-0.0099,-0.0041,-0.0037,-0.0032,-0.0074,-0.0074,-0.0073,-0.0042,0,-0.0242,-0.0208,-0.0206,-0.0175,-0.0159,-0.0162,-0.0146,-0.0135,-0.013,-0.0116,-0.011,-0.0094,-0.0102,-0.0096,-0.0084,-0.0078,-0.006,-0.008,-0.006,-0.0059,-0.0063,-0.0026,-0.0022,0.0007,-0.0038,-0.0038,-0.0037,0,-0.0201,-0.0188,-0.0155,-0.0143,-0.0136,-0.0121,-0.0106,-0.0092,-0.008,-0.0077,-0.0067,-0.0068,-0.0048,-0.0061,-0.0035,-0.0048,-0.004,-0.0035,-0.0034,-0.0032,-0.0046,-0.0023,0.0016,0.002,-0.0031,-0.0031,-0.0032,0,-0.0178,-0.0151,-0.0129,-0.0122,-0.0107,-0.0096,-0.009,-0.0078,-0.0068,-0.0055,-0.0049,-0.0033,-0.0025,-0.0013,-0.001,-0.002,0.0016,0.0004,0.0019,0.0019,0.0027,0.0026,0.0068,0.0032,0.0032,0.0032,0.0032,0,-0.0143,-0.0124,-0.0118,-0.0104,-0.0082,-0.008,-0.0058,-0.0052,-0.0042,-0.0028,-0.003,-0.0016,-0.0013,0.0002,0.0004,0.0025,0.0029,0.0032,0.0032,0.0032,0.0032,0.0038,0.0036,0.0033,0.0033,0.0032,0.0032,0,-0.0113,-0.0108,-0.0084,-0.0072,-0.0069,-0.0053,-0.0043,-0.003,-0.0025,-0.0007,-0.0002,0.0005,0.0021,0.0026,0.0046,0.0047,0.0072,0.0071,0.0068,0.0068,0.0083,0.0081,0.013,0.0136,0.0096,0.0097,0.0097,0,-0.0091,-0.0076,-0.0063,-0.0053,-0.0046,-0.003,-0.0021,-0.0018,-0.0008,0.0007,0.0018,0.0035,0.0048,0.0075,0.0081,0.0096,0.0095,0.0111,0.0098,0.0097,0.0095,0.0095,0.0096,0.0114,0.0114,0.0115,0.0115,0,-0.0054,-0.0052,-0.0038,-0.0023,-0.0011,0.0001,0.0013,0.0021,0.0025,0.0036,0.0053,0.0064,0.0084,0.01,0.0115,0.0122,0.0119,0.0119,0.0123,0.0124,0.0121,0.0123,0.0075,0.0118,0.0118,0.0118,0.0117,0.0117,-0.0027,-0.0014,-0.0003,0.0013,0.0022,0.0033,0.0046,0.0051,0.0066,0.0082,0.0083,0.0101,0.0112,0.0132,0.014,0.0154,0.0149,0.0155,0.0157,0.0158,0.0159,0.0119,0.0157,0.0157,0.0156,0.0156,0.0156,0,0.001,0.0017,0.0032,0.0048,0.006,0.0057,0.0069,0.008,0.0096,0.0106,0.0119,0.0139,0.0154,0.0162,0.0177,0.0187,0.0186,0.0191,0.019,0.0192,0.0163,0.0158,0.0191,0.0191,0.0191,0.0191,0.0191,0.0191,0.0032,0.0053,0.0056,0.0082,0.0089,0.0107,0.0114,0.0124,0.0132,0.0154,0.0166,0.0171,0.0181,0.0196,0.021,0.0212,0.0218,0.0223,0.0225,0.0197,0.0194,0.0191,0.0186,0.0225,0.0225,0.0252,0.0252,0.0253]}]]